Location: Unspecified
(42.5000°N, 12.5000°E)
Time: 02:58:41
(UTC+01:00)

Envisat - Visible Passes

Search period start: 01 February 2023 00:00
Search period end: 11 February 2023 00:00
Orbit: 763 x 765 km, 98.2° (Epoch: 31 January)

Date Brightness Start Highest point End Pass type
(mag) Time Alt. Az. Time Alt. Az. Time Alt. Az.
01 Feb 5.2 04:40:13 10° N 04:40:56 14° N 04:40:56 14° N visible
02 Feb 5.6 04:03:11 10° NNE 04:03:36 12° NNE 04:03:36 12° NNE visible
02 Feb 5.1 05:43:22 10° NNW 05:43:47 11° NNW 05:43:47 11° NNW visible
03 Feb 5.0 05:05:26 10° N 05:06:27 16° N 05:06:27 16° N visible
04 Feb 5.2 04:28:05 10° N 04:29:07 16° N 04:29:07 16° N visible
05 Feb 5.6 03:51:13 10° NNE 03:51:47 13° NNE 03:51:47 13° NNE visible
05 Feb 4.9 05:30:54 10° NNW 05:31:59 15° NNW 05:31:59 15° NNW visible
06 Feb 4.8 04:53:11 10° N 04:54:39 19° N 04:54:39 19° N visible
07 Feb 5.1 04:16:00 10° NNE 04:17:19 18° NNE 04:17:19 18° NNE visible
07 Feb 5.0 05:56:54 10° NNW 05:57:31 12° NW 05:57:31 12° NW visible
08 Feb 5.6 03:39:17 10° NNE 03:40:00 14° NE 03:40:00 14° NE visible
08 Feb 4.7 05:18:32 10° N 05:20:11 18° NNW 05:20:11 18° NNW visible
09 Feb 4.7 04:41:01 10° N 04:42:52 22° N 04:42:52 22° N visible
10 Feb 5.1 04:03:58 10° NNE 04:05:32 20° NNE 04:05:32 20° NNE visible
10 Feb 4.8 05:44:14 10° NNW 05:45:44 15° NW 05:45:44 15° NW visible
